Regional Weather Roundup
Issued by NWS

Home | Current Version | Previous Version | Text Only | Print | Product List | Glossary On
Versions: 1 2 3 4 5 6 7 8 9 10 11 12 13 14 15 16 17 18 19 20 21 22 23 24 25 26 27
000
ASUS45 KBOU 300907
RWRCO

WEATHER ROUNDUP FOR COLORADO
NATIONAL WEATHER SERVICE DENVER/BOULDER CO
300 AM MDT SAT JUL 30 2016

NOTE: "FAIR" INDICATES FEW OR NO CLOUDS BELOW 12000 FEET WITH NO
SIGNIFICANT WEATHER AND/OR OBSTRUCTIONS TO VISIBILITY.

COZ001>005-013-030-031-301000-
...NORTHWEST COLORADO...

CITY           SKY/WX    TMP DP  RH WIND       PRES   REMARKS
CRAIG          FAIR      48  41  76 CALM      30.12R
HAYDEN         FAIR      57  36  44 E10       30.13S
MEEKER         FAIR      58  40  51 CALM      30.14S
MOUNT WERNER   NOT AVBL
STEAMBOAT SPGS FAIR      53  38  56 CALM      30.17S
WALDEN         FAIR      39  32  75 SE10      30.27S
$$

COZ006>008-011-301000-
...WEST CENTRAL VALLEYS...

CITY           SKY/WX    TMP DP  RH WIND       PRES   REMARKS
GRAND JUNCTION FAIR      77  36  22 E12       29.97F
MONTROSE       FAIR      67  40  37 E5        30.08S
EAGLE          FAIR      59  36  41 S3        30.18S
RIFLE          FAIR      62  41  46 E6        30.07S
DELTA          NOT AVBL
NUCLA          NOT AVBL
$$

COZ017>023-064>068-301000-
...SOUTHWEST COLORADO...

CITY           SKY/WX    TMP DP  RH WIND       PRES   REMARKS
DURANGO        FAIR      62  43  49 NE7       30.23S
CORTEZ         FAIR      69  45  41 NW3       30.12F
PAGOSA SPRINGS FAIR      58  39  48 NE3       30.33F
TELLURIDE      MOCLDY    66  31  27 SE3       30.40S
WOLF CREEK PAS FAIR      46  36  66 SW15      30.66F
$$

COZ009-010-012-014-032>034-037-058>063-301000-
...CENTRAL COLORADO...

CITY           SKY/WX    TMP DP  RH WIND       PRES   REMARKS
ASPEN          FAIR      55  37  50 S6        30.25S
BUENA VISTA    FAIR      55  46  71 SW5       30.32F
COPPER MTN     FAIR      54  32  43 SW6       30.60S
BERTHOUD PASS  FAIR      46  32  57 W14G21    30.60F
COTTONWOOD PAS FAIR      57  48  72 CALM      30.45S
GUNNISON       FAIR      54  37  54 N6        30.30S
KREMMLING      FAIR      48  37  66 CALM      30.24S
LEADVILLE      FAIR      46  41  82 NE6       30.44S
MONARCH PASS   MOCLDY    52  34  50 S9        30.70F
SALIDA         FAIR      61  51  70 CALM      30.37S
SUNLIGHT       FAIR      63  30  29 MISG      30.51F
WILKERSON PASS FAIR      48  45  87 CALM      30.57S
$$

COZ069>075-301000-
...SAN LUIS VALLEY/SANGRE DE CRISTO MOUNTAINS...

CITY           SKY/WX    TMP DP  RH WIND       PRES   REMARKS
ALAMOSA        MOCLDY    59  42  53 SE8       30.26S
LA VETA PASS   FAIR      50  41  71 S9        30.45F
SAGUACHE       FAIR      61  41  48 CALM      30.31F
$$

COZ035-036-038>040-301000-
...NORTHERN COLORADO FRONT RANGE...

CITY           SKY/WX    TMP DP  RH WIND       PRES   REMARKS
DENVER INTL AP FAIR      66  59  78 SE16      30.11S
DMNS CITY PARK   N/A     64  59  82 NE1       30.10S
AURORA         PTCLDY    68  60  75 S17       30.12S
FRONT RANGE AP NOT AVBL
ERIE MUNI ARPT FAIR      62  58  90 CALM      30.09F
BOULDER MUN AP FAIR      63  59  88 CALM      30.09F
CENTENNIAL     FAIR      67  58  72 S17G26    30.13F
BROOMFIELD     FAIR      63  59  88 N8        30.12F
LONGMONT       NOT AVBL
$$

COZ041-046-047-076>085-087-088-301000-
...PIKES PEAK/PALMER DIVIDE AND SOUTHERN FOOTHILLS...

CITY           SKY/WX    TMP DP  RH WIND       PRES   REMARKS
COLO. SPRINGS  TSTM      64  59  83 SE15      30.20F
A. F. ACADEMY  CLOUDY    62  61  97 S9        30.22F
SCHRIEVER AFB  NOT AVBL
ELLICOTT       NOT AVBL
FALCON         NOT AVBL
FORT CARSON    CLOUDY    64  61  88 NE2       30.20R THUNDER
LIMON          LGT RAIN  63  61  93 SE16      30.18F
MONUMENT HILL  CLOUDY    59  55  88 S17       30.25F
TRINIDAD       NOT AVBL
$$

COZ042>045-048>051-090-091-301000-
...NORTHEAST COLORADO...

CITY           SKY/WX    TMP DP  RH WIND       PRES   REMARKS
GREELEY ARPT   FAIR      64  61  88 SE7       30.08F
AKRON          FAIR      61  55  81 W8        30.07F
BURLINGTON     FAIR      64  55  72 SW16      30.07R
WRAY           NOT AVBL
STERLING       NOT AVBL
HOLYOKE        NOT AVBL
FORT MORGAN    NOT AVBL
$$

COZ086-089-092>099-301000-
...SOUTHEAST COLORADO...

CITY           SKY/WX    TMP DP  RH WIND       PRES   REMARKS
PUEBLO         FAIR      68  59  73 NE5       30.10F
LA JUNTA       FAIR      67  62  84 E14       30.08F
LAMAR          FAIR      67  64  90 E12       30.08F
SPRINGFIELD      N/A     56  54  93 SW6       30.13F
$$




USA.gov is the U.S. government's official web portal to all federal, state and local government web resources and services.